Starlink 5986

operational
NORAD ID: 56452 Int'l Des: 2023-064 Owner: SPXS Country: US Constellation: starlink
LEOCIRCULAR

About Starlink 5986

Description loading...

Live Position

Loading 3D Globe...

Upcoming Passes

Altitude History

Altitude vs Time

uPlot chart will show altitude changes over time

Two-Line Element Set

1 56452U 23064E 25303.51568204 .00000206 00000-0 25039-4 0 9992
2 56452 69.9991 112.8174 0002981 268.8259 91.2558 14.98335191135745
Epoch: Oct 30, 2025 • Age: 24 hours

Current Status

Altitude 594.1 km
Velocity 7.56 km/s
Sub-Earth Point -64.44°S, 160.16°W
Launch Date May 10, 2023
Age 2.4 years
Type internet

Technical Details

Classification Payload
Mass 305.00 kg
Dry Mass 290.00 kg
Total Mass 305.00 kg
Length 0.20 m
Diameter 2.80 m
Span 9.00 m
Shape Box + pan
Manufacturer SPXS
Bus Type Starlink
Phase Status In Orbit
Owner/State SPXS/US

Large Constellations

Loading constellations...